Longville, MN

8:50 PM CDT on July 25, 2017 (GMT -0500)
Longville Municipal

Weather History for KXVG - April, 2014

Change the Weather History Date:

Monday, April 7, 2014

  Actual Average (KPWC) Record (KPWC)
Temperature  
Mean Temperature 42 °F -  
Max Temperature 51 °F 47 °F 109 °F (1999)
Min Temperature 33 °F 26 °F 6 °F (1997)
Degree Days  
Heating Degree Days 23    
Moisture  
Dew Point 32 °F    
Average Humidity 73    
Maximum Humidity 100    
Minimum Humidity 32    
Precipitation  
Precipitation 0.00 in - - ()
Sea Level Pressure  
Sea Level Pressure 29.81 in    
Wind  
Wind Speed 4 mph (WNW)    
Max Wind Speed 12 mph    
Max Gust Speed 22 mph    
Visibility 8 miles    
Events Fog , Rain    
Averages and records for this station are not official NWS values.
T = Trace of Precipitation, MM = Missing Value Source: NWS Daily Summary

Daily Weather History Graph

Daily Weather History Graph

Search for Another Location

Airport or City:

Trip Planner

Search our weather history database for the weather conditions in past years. The results will help you decide how hot, cold, wet, or windy it might be!

Date:

Astronomy

Apr. 07, 2014 Rise Set
Actual Time 6:44 AM CDT 7:54 PM CDT
Civil Twilight 6:12 AM CDT 8:25 PM CDT
Nautical Twilight 5:35 AM CDT 9:03 PM CDT
Astronomical Twilight 4:55 AM CDT 9:43 PM CDT
Moon 12:30 PM CDT (4/7) 2:42 AM CDT (4/7)
Length of Visible Light 14h 12m
Length of Day
13h 10m
First Quarter, 53% of the Moon is Illuminated
Apr 7
First Quarter
Apr 15
Full
Apr 22
Last Quarter
Apr 29
New
May 6
First Quarter

Hourly Weather History & Observations

Time (CDT) Temp. Windchill Dew Point Humidity Pressure Visibility Wind Dir Wind Speed Gust Speed Precip Events Conditions
12:07 AM 37.4 °F 33.8 °F 33.8 °F 87% 29.80 in 10.0 mi WSW 4.6 mph - N/A   Clear
12:35 AM 35.6 °F - 30.2 °F 81% 29.80 in 10.0 mi Calm Calm - N/A   Mostly Cloudy
1:09 AM 33.8 °F - 30.2 °F 87% 29.80 in 10.0 mi Calm Calm - N/A   Mostly Cloudy
1:18 AM 33.8 °F - 30.2 °F 87% 29.79 in 10.0 mi Calm Calm - N/A   Mostly Cloudy
1:51 AM 35.6 °F 31.7 °F 30.2 °F 81% 29.81 in 7.0 mi South 4.6 mph - N/A   Drizzle
2:33 AM 37.4 °F 34.9 °F 35.6 °F 93% 29.80 in 5.0 mi WNW 3.5 mph - N/A Rain Light Rain
2:38 AM 37.4 °F 34.9 °F 35.6 °F 93% 29.80 in 5.0 mi WNW 3.5 mph - N/A Rain Light Rain
2:55 AM 37.4 °F - 35.6 °F 93% 29.80 in 2.0 mi Calm Calm - N/A Rain Rain
2:59 AM 37.4 °F - 35.6 °F 93% 29.80 in 2.0 mi Calm Calm - N/A Rain Light Rain
3:29 AM 37.4 °F - 35.6 °F 93% 29.80 in 1.0 mi Calm Calm - N/A Rain Rain
3:50 AM 35.6 °F - 35.6 °F 100% 29.78 in 1.0 mi Calm Calm - N/A Rain Rain
4:00 AM 35.6 °F - 33.8 °F 93% 29.78 in 1.0 mi Calm Calm - N/A Rain Rain
4:20 AM 35.6 °F - 33.8 °F 93% 29.78 in 1.0 mi Calm Calm - N/A   Light Drizzle
4:55 AM 37.4 °F - 35.6 °F 93% 29.78 in 2.5 mi Calm Calm - N/A   Light Drizzle
5:17 AM 37.4 °F - 37.4 °F 100% 29.78 in 3.0 mi Calm Calm - N/A Rain Light Rain
5:28 AM 37.4 °F - 35.6 °F 93% 29.78 in 1.5 mi Calm Calm - N/A Rain Light Rain
5:43 AM 37.4 °F - 37.4 °F 100% 29.78 in 2.0 mi Calm Calm - N/A Rain Rain
5:56 AM 35.6 °F - 35.6 °F 100% 29.78 in 1.0 mi Calm Calm - N/A Rain Rain
6:22 AM 37.4 °F - 37.4 °F 100% 29.78 in 7.0 mi Calm Calm - N/A   Light Drizzle
6:43 AM 35.6 °F - 33.8 °F 93% 29.79 in 2.0 mi Calm Calm - N/A   Overcast
7:01 AM 35.6 °F - 33.8 °F 93% 29.79 in 0.5 mi Calm Calm - N/A Fog Fog
7:16 AM 35.6 °F - 35.6 °F 100% 29.80 in 0.5 mi Calm Calm - N/A Fog Fog
7:37 AM 35.6 °F - 35.6 °F 100% 29.80 in 0.5 mi Calm Calm - N/A Fog Fog
7:58 AM 37.4 °F - 37.4 °F 100% 29.81 in 2.5 mi Calm Calm - N/A   Overcast
8:17 AM 39.2 °F - 37.4 °F 93% 29.81 in 7.0 mi Calm Calm - N/A   Mostly Cloudy
8:38 AM 39.2 °F - 39.2 °F 100% 29.81 in 7.0 mi Calm Calm - N/A   Scattered Clouds
8:57 AM 41.0 °F - 41.0 °F 100% 29.81 in 10.0 mi Calm Calm - N/A   Clear
9:17 AM 42.8 °F - 42.8 °F 100% 29.80 in 10.0 mi Calm Calm - N/A   Clear
9:39 AM 44.6 °F - 42.8 °F 93% 29.80 in 10.0 mi Calm Calm - N/A   Clear
9:58 AM 42.8 °F 40.1 °F 42.8 °F 100% 29.81 in 10.0 mi West 4.6 mph - N/A   Scattered Clouds
10:18 AM 44.6 °F 43.1 °F 42.8 °F 93% 29.81 in 10.0 mi West 3.5 mph - N/A   Mostly Cloudy
10:36 AM 46.4 °F 44.3 °F 41.0 °F 81% 29.82 in 10.0 mi NW 4.6 mph - N/A   Scattered Clouds
11:36 AM 44.6 °F 39.2 °F 39.2 °F 81% 29.83 in 10.0 mi WNW 10.4 mph - N/A   Mostly Cloudy
11:56 AM 44.6 °F 39.2 °F 39.2 °F 81% 29.83 in 10.0 mi WNW 10.4 mph - N/A   Overcast
12:17 PM 44.6 °F 40.7 °F 37.4 °F 76% 29.82 in 10.0 mi WNW 6.9 mph - N/A   Mostly Cloudy
12:36 PM 46.4 °F 41.9 °F 37.4 °F 71% 29.82 in 10.0 mi WNW 9.2 mph - N/A   Scattered Clouds
12:57 PM 46.4 °F 42.9 °F 37.4 °F 71% 29.82 in 10.0 mi WNW 6.9 mph - N/A   Clear
1:18 PM 48.2 °F - 37.4 °F 66% 29.82 in 10.0 mi NW 6.9 mph - N/A   Clear
1:38 PM 48.2 °F - 37.4 °F 66% 29.81 in 10.0 mi West 10.4 mph - N/A   Clear
1:56 PM 50.0 °F - 35.6 °F 58% 29.81 in 10.0 mi WNW 8.1 mph - N/A   Clear
2:17 PM 50.0 °F - 35.6 °F 58% 29.80 in 10.0 mi WNW 8.1 mph - N/A   Clear
2:21 PM 50.0 °F - 35.6 °F 58% 29.80 in 10.0 mi West 10.4 mph 17.3 mph N/A   Clear
3:18 PM 51.8 °F - 28.4 °F 41% 29.80 in 10.0 mi WNW 11.5 mph 18.4 mph N/A   Clear
3:40 PM 51.8 °F - 26.6 °F 38% 29.79 in 10.0 mi NW 8.1 mph - N/A   Clear
3:57 PM 51.8 °F - 26.6 °F 38% 29.79 in 10.0 mi NW 11.5 mph 18.4 mph N/A   Clear
4:16 PM 51.8 °F - 26.6 °F 38% 29.80 in 10.0 mi NW 6.9 mph 21.9 mph N/A   Clear
4:36 PM 51.8 °F - 24.8 °F 35% 29.80 in 10.0 mi NW 11.5 mph 20.7 mph N/A   Clear
4:56 PM 50.0 °F - 23.0 °F 35% 29.80 in 10.0 mi NW 8.1 mph 18.4 mph N/A   Clear
5:17 PM 50.0 °F - 23.0 °F 35% 29.80 in 10.0 mi NW 5.8 mph - N/A   Clear
5:36 PM 50.0 °F - 21.2 °F 32% 29.80 in 10.0 mi NW 5.8 mph - N/A   Clear
5:56 PM 50.0 °F - 23.0 °F 35% 29.80 in 10.0 mi NW 8.1 mph - N/A   Clear
6:16 PM 48.2 °F - 26.6 °F 43% 29.81 in 10.0 mi WNW 9.2 mph - N/A   Clear
6:36 PM 48.2 °F - 26.6 °F 43% 29.81 in 10.0 mi WNW 9.2 mph - N/A   Clear
6:57 PM 46.4 °F 41.9 °F 26.6 °F 46% 29.81 in 10.0 mi WNW 9.2 mph - N/A   Clear
7:18 PM 44.6 °F 39.2 °F 26.6 °F 49% 29.81 in 10.0 mi NW 10.4 mph - N/A   Clear
7:37 PM 44.6 °F 40.2 °F 26.6 °F 49% 29.81 in 10.0 mi WNW 8.1 mph - N/A   Clear
7:56 PM 42.8 °F 37.5 °F 26.6 °F 53% 29.82 in 10.0 mi WNW 9.2 mph - N/A   Clear
8:16 PM 41.0 °F 37.1 °F 24.8 °F 53% 29.82 in 10.0 mi NW 5.8 mph - N/A   Clear
8:58 PM 39.2 °F 35.0 °F 23.0 °F 52% 29.84 in 10.0 mi WNW 5.8 mph - N/A   Clear
9:18 PM 39.2 °F 35.0 °F 23.0 °F 52% 29.84 in 10.0 mi WNW 5.8 mph - N/A   Clear
9:36 PM 37.4 °F 32.8 °F 24.8 °F 60% 29.85 in 10.0 mi WNW 5.8 mph - N/A   Clear
9:59 PM 37.4 °F 32.8 °F 24.8 °F 60% 29.84 in 10.0 mi WNW 5.8 mph - N/A   Clear
10:16 PM 37.4 °F 32.8 °F 24.8 °F 60% 29.85 in 10.0 mi NW 5.8 mph - N/A   Clear
10:36 PM 37.4 °F 32.8 °F 24.8 °F 60% 29.85 in 10.0 mi WNW 5.8 mph - N/A   Clear
11:06 PM 35.6 °F 29.2 °F 24.8 °F 65% 29.85 in 10.0 mi WNW 8.1 mph - N/A   Clear
11:16 PM 35.6 °F 29.9 °F 24.8 °F 65% 29.85 in 10.0 mi WNW 6.9 mph - N/A   Clear
11:37 PM 33.8 °F 27.7 °F 24.8 °F 70% 29.85 in 10.0 mi NW 6.9 mph - N/A   Clear
11:56 PM 33.8 °F 28.6 °F 24.8 °F 70% 29.85 in 10.0 mi WNW 5.8 mph - N/A   Clear